Time,TemperatureF,DewpointF,PressureIn,WindDirection,WindDirectionDegrees,WindSpeedMPH,WindSpeedGustMPH,Humidity,HourlyPrecipIn,Conditions,Clouds,dailyrainin,SoftwareType,DateUTC
2013-07-09 00:01:00,67.5,67.5,30.28,West,275,0.0,0.0,100,-0.32,,,0.00,Weather View 32 v70,2013-07-09 04:01:00,
2013-07-09 00:06:00,67.4,67.4,30.29,West,275,0.0,0.0,100,-0.32,,,0.00,Weather View 32 v70,2013-07-09 04:06:00,
2013-07-09 00:11:00,67.2,67.2,30.29,West,275,0.0,0.0,100,-0.32,,,0.00,Weather View 32 v70,2013-07-09 04:11:00,
2013-07-09 00:16:00,67.1,67.1,30.29,West,275,0.0,0.0,100,-0.32,,,0.00,Weather View 32 v70,2013-07-09 04:16:00,
2013-07-09 00:21:00,67.0,67.0,30.29,West,275,0.0,0.0,100,-0.32,,,0.00,Weather View 32 v70,2013-07-09 04:21:00,
2013-07-09 00:26:00,66.8,66.8,30.29,West,275,0.0,0.0,100,-0.32,,,0.00,Weather View 32 v70,2013-07-09 04:26:00,
2013-07-09 00:31:00,66.7,66.7,30.29,West,274,0.0,0.0,100,-0.32,,,0.00,Weather View 32 v70,2013-07-09 04:31:00,
2013-07-09 00:36:00,66.6,66.6,30.29,SW,233,0.0,0.0,100,-0.32,,,0.00,Weather View 32 v70,2013-07-09 04:36:00,
2013-07-09 00:41:00,66.6,66.6,30.29,SW,233,0.0,0.0,100,-0.32,,,0.00,Weather View 32 v70,2013-07-09 04:41:00,
2013-07-09 00:46:00,66.5,66.5,30.29,SW,232,0.0,0.0,100,-0.32,,,0.00,Weather View 32 v70,2013-07-09 04:46:00,
2013-07-09 00:51:00,66.5,66.5,30.29,SW,232,0.0,0.0,100,-0.32,,,0.00,Weather View 32 v70,2013-07-09 04:51:00,
2013-07-09 00:56:00,66.4,66.4,30.29,SW,232,0.0,0.0,100,-0.32,,,0.00,Weather View 32 v70,2013-07-09 04:56:00,
2013-07-09 01:01:00,66.4,66.4,30.29,SW,232,0.0,0.0,100,0.00,,,0.00,Weather View 32 v70,2013-07-09 05:01:00,
2013-07-09 01:06:00,66.4,66.4,30.29,SW,232,0.0,0.0,100,0.00,,,0.00,Weather View 32 v70,2013-07-09 05:06:00,
2013-07-09 01:11:00,66.5,66.5,30.29,SW,232,0.0,0.0,100,0.00,,,0.00,Weather View 32 v70,2013-07-09 05:11:00,
2013-07-09 01:16:00,66.5,66.5,30.29,SW,232,0.0,0.0,100,0.00,,,0.00,Weather View 32 v70,2013-07-09 05:16:00,
2013-07-09 01:21:00,66.6,66.6,30.29,SW,231,0.0,0.0,100,0.00,,,0.00,Weather View 32 v70,2013-07-09 05:21:00,
2013-07-09 01:26:00,66.5,66.5,30.28,SW,231,0.0,0.0,100,0.00,,,0.00,Weather View 32 v70,2013-07-09 05:26:00,
2013-07-09 01:31:00,66.5,66.5,30.28,SW,231,0.0,0.0,100,0.00,,,0.00,Weather View 32 v70,2013-07-09 05:31:00,
2013-07-09 01:37:00,66.6,66.6,30.28,SW,231,0.0,0.0,100,0.00,,,0.00,Weather View 32 v70,2013-07-09 05:37:00,
2013-07-09 01:42:00,66.6,66.6,30.28,SW,231,0.0,0.0,100,0.00,,,0.00,Weather View 32 v70,2013-07-09 05:42:00,
2013-07-09 01:47:00,66.6,66.6,30.28,SW,231,0.0,0.0,100,0.00,,,0.00,Weather View 32 v70,2013-07-09 05:47:00,
2013-07-09 01:52:00,66.6,66.6,30.28,SW,231,0.0,0.0,100,0.00,,,0.00,Weather View 32 v70,2013-07-09 05:52:00,
2013-07-09 01:57:00,66.6,66.6,30.28,SW,231,0.0,0.0,100,0.00,,,0.00,Weather View 32 v70,2013-07-09 05:57:00,
2013-07-09 02:02:00,66.6,66.6,30.28,SW,231,0.0,0.0,100,0.00,,,0.00,Weather View 32 v70,2013-07-09 06:02:00,
2013-07-09 02:07:00,66.6,66.6,30.28,SW,231,0.0,0.0,100,0.00,,,0.00,Weather View 32 v70,2013-07-09 06:07:00,
2013-07-09 02:12:00,66.7,66.7,30.28,SW,231,0.0,0.0,100,0.00,,,0.00,Weather View 32 v70,2013-07-09 06:12:00,
2013-07-09 02:17:00,66.6,66.6,30.29,SW,231,0.0,0.0,100,0.00,,,0.00,Weather View 32 v70,2013-07-09 06:17:00,
2013-07-09 02:22:00,66.5,66.5,30.28,SW,231,0.0,0.0,100,0.00,,,0.00,Weather View 32 v70,2013-07-09 06:22:00,
2013-07-09 02:27:00,66.5,66.5,30.28,SW,231,0.0,0.0,100,0.00,,,0.00,Weather View 32 v70,2013-07-09 06:27:00,
2013-07-09 02:32:00,66.5,66.5,30.28,SW,231,0.0,0.0,100,0.00,,,0.00,Weather View 32 v70,2013-07-09 06:32:00,
2013-07-09 02:37:00,66.4,66.4,30.28,SW,231,0.0,0.0,100,0.00,,,0.00,Weather View 32 v70,2013-07-09 06:37:00,
2013-07-09 02:42:00,66.3,66.3,30.28,SW,231,0.0,0.0,100,0.00,,,0.00,Weather View 32 v70,2013-07-09 06:42:00,
2013-07-09 02:47:00,66.3,66.3,30.28,SW,231,0.0,0.0,100,0.00,,,0.00,Weather View 32 v70,2013-07-09 06:47:00,
2013-07-09 02:52:00,66.3,66.3,30.27,SW,231,0.0,0.0,100,0.00,,,0.00,Weather View 32 v70,2013-07-09 06:52:00,
2013-07-09 02:57:00,66.3,66.3,30.27,SW,231,0.0,0.0,100,0.00,,,0.00,Weather View 32 v70,2013-07-09 06:57:00,
2013-07-09 03:02:00,66.2,66.2,30.27,SW,230,0.0,0.0,100,0.00,,,0.00,Weather View 32 v70,2013-07-09 07:02:00,
2013-07-09 03:07:00,66.2,66.2,30.27,SW,229,0.0,0.0,100,0.00,,,0.00,Weather View 32 v70,2013-07-09 07:07:00,
2013-07-09 03:12:00,66.0,66.0,30.27,SW,229,0.0,0.0,100,0.00,,,0.00,Weather View 32 v70,2013-07-09 07:12:00,
2013-07-09 03:17:00,66.0,66.0,30.27,SW,229,0.0,0.0,100,0.00,,,0.00,Weather View 32 v70,2013-07-09 07:17:00,
2013-07-09 03:22:00,65.9,65.9,30.27,SW,229,0.0,0.0,100,0.00,,,0.00,Weather View 32 v70,2013-07-09 07:22:00,
2013-07-09 03:27:00,65.8,65.8,30.27,SW,229,0.0,0.0,100,0.00,,,0.00,Weather View 32 v70,2013-07-09 07:27:00,
2013-07-09 03:32:00,65.6,65.6,30.26,SW,229,0.0,0.0,100,0.00,,,0.00,Weather View 32 v70,2013-07-09 07:32:00,
2013-07-09 03:37:00,65.5,65.5,30.26,SW,229,0.0,0.0,100,0.00,,,0.00,Weather View 32 v70,2013-07-09 07:37:00,
2013-07-09 03:42:00,65.4,65.4,30.26,SW,229,0.0,0.0,100,0.00,,,0.00,Weather View 32 v70,2013-07-09 07:42:00,
2013-07-09 03:47:00,65.3,65.3,30.26,SW,229,0.0,0.0,100,0.00,,,0.00,Weather View 32 v70,2013-07-09 07:47:00,
2013-07-09 03:55:00,65.1,65.1,30.26,SW,229,0.0,0.0,100,0.00,,,0.00,Weather View 32 v70,2013-07-09 07:55:00,
2013-07-09 04:00:00,65.1,65.1,30.26,SW,229,0.0,0.0,100,0.00,,,0.00,Weather View 32 v70,2013-07-09 08:00:00,
2013-07-09 04:05:00,65.0,65.0,30.26,SW,229,0.0,0.0,100,0.00,,,0.00,Weather View 32 v70,2013-07-09 08:05:00,
2013-07-09 04:10:00,64.9,64.9,30.26,SW,229,0.0,0.0,100,0.00,,,0.00,Weather View 32 v70,2013-07-09 08:10:00,
2013-07-09 04:15:00,64.9,64.9,30.26,SW,228,0.0,0.0,100,0.00,,,0.00,Weather View 32 v70,2013-07-09 08:15:00,
2013-07-09 04:20:00,64.8,64.8,30.26,SW,228,0.0,0.0,100,0.00,,,0.00,Weather View 32 v70,2013-07-09 08:20:00,
2013-07-09 04:25:00,64.8,64.8,30.26,SW,229,0.0,0.0,100,0.00,,,0.00,Weather View 32 v70,2013-07-09 08:25:00,
2013-07-09 04:30:00,64.7,64.7,30.26,SW,229,0.0,0.0,100,0.00,,,0.00,Weather View 32 v70,2013-07-09 08:30:00,
2013-07-09 04:35:00,64.6,64.6,30.26,SW,229,0.0,0.0,100,0.00,,,0.00,Weather View 32 v70,2013-07-09 08:35:00,
2013-07-09 04:40:00,64.5,64.5,30.26,SW,229,0.0,0.0,100,0.00,,,0.00,Weather View 32 v70,2013-07-09 08:40:00,
2013-07-09 04:45:00,64.5,64.5,30.26,SW,229,0.0,0.0,100,0.00,,,0.00,Weather View 32 v70,2013-07-09 08:45:00,
2013-07-09 04:50:00,64.4,64.4,30.26,SW,229,0.0,0.0,100,0.00,,,0.00,Weather View 32 v70,2013-07-09 08:50:00,
2013-07-09 04:55:00,64.3,64.3,30.26,SW,229,0.0,0.0,100,0.00,,,0.00,Weather View 32 v70,2013-07-09 08:55:00,
2013-07-09 05:00:00,64.3,64.3,30.26,SW,229,0.0,0.0,100,0.00,,,0.00,Weather View 32 v70,2013-07-09 09:00:00,
2013-07-09 05:05:00,64.3,64.3,30.27,SW,229,0.0,0.0,100,0.00,,,0.00,Weather View 32 v70,2013-07-09 09:05:00,
2013-07-09 05:10:00,64.5,64.5,30.27,SW,229,0.0,0.0,100,0.00,,,0.00,Weather View 32 v70,2013-07-09 09:10:00,
2013-07-09 05:15:00,64.7,64.7,30.27,SW,229,0.0,0.0,100,0.00,,,0.00,Weather View 32 v70,2013-07-09 09:15:00,
2013-07-09 05:20:00,64.8,64.8,30.27,SW,229,0.0,0.0,100,0.00,,,0.00,Weather View 32 v70,2013-07-09 09:20:00,
2013-07-09 05:25:00,64.8,64.8,30.27,SW,229,0.0,0.0,100,0.00,,,0.00,Weather View 32 v70,2013-07-09 09:25:00,
2013-07-09 05:30:00,64.9,64.9,30.27,SW,229,0.0,0.0,100,0.00,,,0.00,Weather View 32 v70,2013-07-09 09:30:00,
2013-07-09 05:35:00,64.9,64.9,30.26,SW,229,0.0,0.0,100,0.00,,,0.00,Weather View 32 v70,2013-07-09 09:35:00,
2013-07-09 05:40:00,65.1,65.1,30.26,SW,229,0.0,0.0,100,0.00,,,0.00,Weather View 32 v70,2013-07-09 09:40:00,
2013-07-09 05:45:00,65.1,65.1,30.26,SW,229,0.0,0.0,100,0.00,,,0.00,Weather View 32 v70,2013-07-09 09:45:00,
2013-07-09 05:50:00,65.1,65.1,30.26,SW,229,0.0,0.0,100,0.00,,,0.00,Weather View 32 v70,2013-07-09 09:50:00,
2013-07-09 05:55:00,65.1,65.1,30.26,SW,229,0.0,0.0,100,0.00,,,0.00,Weather View 32 v70,2013-07-09 09:55:00,
2013-07-09 06:00:00,65.1,65.1,30.26,SW,229,0.0,0.0,100,0.00,,,0.00,Weather View 32 v70,2013-07-09 10:00:00,
2013-07-09 06:05:00,65.1,65.1,30.25,SW,229,0.0,0.0,100,0.00,,,0.00,Weather View 32 v70,2013-07-09 10:05:00,
2013-07-09 06:10:00,65.1,65.1,30.25,SW,229,0.0,0.0,100,0.00,,,0.00,Weather View 32 v70,2013-07-09 10:10:00,
2013-07-09 06:15:00,65.1,65.1,30.25,SW,229,0.0,0.0,100,0.00,,,0.00,Weather View 32 v70,2013-07-09 10:15:00,
2013-07-09 06:20:00,65.0,65.0,30.25,SW,229,0.0,0.0,100,0.00,,,0.00,Weather View 32 v70,2013-07-09 10:20:00,
2013-07-09 06:25:00,65.0,65.0,30.25,SW,229,0.0,0.0,100,0.00,,,0.00,Weather View 32 v70,2013-07-09 10:25:00,
2013-07-09 06:30:00,64.9,64.9,30.25,SW,229,0.0,0.0,100,0.00,,,0.00,Weather View 32 v70,2013-07-09 10:30:00,
2013-07-09 06:35:00,64.8,64.8,30.25,SW,229,0.0,0.0,100,0.00,,,0.00,Weather View 32 v70,2013-07-09 10:35:00,
2013-07-09 06:40:00,64.8,64.8,30.25,SW,229,0.0,0.0,100,0.00,,,0.00,Weather View 32 v70,2013-07-09 10:40:00,
2013-07-09 06:45:00,64.7,64.7,30.25,SW,229,0.0,0.0,100,0.00,,,0.00,Weather View 32 v70,2013-07-09 10:45:00,
2013-07-09 06:50:00,64.6,64.6,30.25,SW,229,0.0,0.0,100,0.00,,,0.00,Weather View 32 v70,2013-07-09 10:50:00,
2013-07-09 06:55:00,64.5,64.5,30.25,SW,229,0.0,0.0,100,0.00,,,0.00,Weather View 32 v70,2013-07-09 10:55:00,
2013-07-09 07:00:00,64.4,64.4,30.25,SW,229,0.0,0.0,100,0.00,,,0.00,Weather View 32 v70,2013-07-09 11:00:00,
2013-07-09 07:05:00,64.3,64.3,30.25,SW,229,0.0,0.0,100,0.00,,,0.00,Weather View 32 v70,2013-07-09 11:05:00,
2013-07-09 07:10:00,64.2,64.2,30.25,SW,228,0.0,0.0,100,0.00,,,0.00,Weather View 32 v70,2013-07-09 11:10:00,
2013-07-09 07:15:00,64.2,64.2,30.25,SW,216,0.0,0.0,100,0.00,,,0.00,Weather View 32 v70,2013-07-09 11:15:00,
2013-07-09 07:20:00,64.2,64.2,30.26,SW,216,0.0,0.0,100,0.00,,,0.00,Weather View 32 v70,2013-07-09 11:20:00,
2013-07-09 07:25:00,64.2,64.2,30.26,SW,216,0.0,0.0,100,0.00,,,0.00,Weather View 32 v70,2013-07-09 11:25:00,
2013-07-09 07:30:00,64.2,64.2,30.26,SW,216,0.0,0.0,100,0.00,,,0.00,Weather View 32 v70,2013-07-09 11:30:00,
2013-07-09 07:35:00,64.2,64.2,30.26,SW,216,0.0,0.0,100,0.00,,,0.00,Weather View 32 v70,2013-07-09 11:35:00,
2013-07-09 07:40:00,64.3,64.3,30.26,SW,216,0.0,0.0,100,0.00,,,0.00,Weather View 32 v70,2013-07-09 11:40:00,
2013-07-09 07:45:00,64.4,64.4,30.27,SW,216,0.0,0.0,100,0.00,,,0.00,Weather View 32 v70,2013-07-09 11:45:00,
2013-07-09 07:50:00,64.6,64.6,30.26,SW,216,0.0,0.0,100,0.00,,,0.00,Weather View 32 v70,2013-07-09 11:50:00,
2013-07-09 07:55:00,64.7,64.7,30.27,SW,216,0.0,0.0,100,0.00,,,0.00,Weather View 32 v70,2013-07-09 11:55:00,
2013-07-09 08:00:00,64.9,64.9,30.27,SW,216,0.0,0.0,100,0.00,,,0.00,Weather View 32 v70,2013-07-09 12:00:00,
2013-07-09 08:05:00,65.0,65.0,30.27,South,178,0.0,0.0,100,0.00,,,0.00,Weather View 32 v70,2013-07-09 12:05:00,
2013-07-09 08:10:00,65.2,65.2,30.27,South,178,0.0,0.0,100,0.00,,,0.00,Weather View 32 v70,2013-07-09 12:10:00,
2013-07-09 08:15:00,65.3,65.3,30.27,South,178,0.0,0.0,100,0.00,,,0.00,Weather View 32 v70,2013-07-09 12:15:00,
2013-07-09 08:20:00,65.6,65.6,30.27,South,178,0.0,0.0,100,0.00,,,0.00,Weather View 32 v70,2013-07-09 12:20:00,
2013-07-09 08:25:00,65.7,65.7,30.27,South,178,0.0,0.0,100,0.00,,,0.00,Weather View 32 v70,2013-07-09 12:25:00,
2013-07-09 08:30:00,65.8,65.8,30.27,South,178,0.0,0.0,100,0.00,,,0.00,Weather View 32 v70,2013-07-09 12:30:00,
2013-07-09 08:36:00,66.0,66.0,30.27,South,178,0.0,0.0,100,0.00,,,0.00,Weather View 32 v70,2013-07-09 12:36:00,
2013-07-09 08:41:00,66.1,66.1,30.27,South,178,0.0,0.0,100,0.00,,,0.00,Weather View 32 v70,2013-07-09 12:41:00,
2013-07-09 08:46:00,66.1,66.1,30.27,South,178,0.0,0.0,100,0.00,,,0.00,Weather View 32 v70,2013-07-09 12:46:00,
2013-07-09 08:51:00,66.1,66.1,30.27,South,178,0.0,0.0,100,0.00,,,0.00,Weather View 32 v70,2013-07-09 12:51:00,
2013-07-09 08:56:00,66.2,66.2,30.27,South,178,0.0,0.0,100,0.00,,,0.00,Weather View 32 v70,2013-07-09 12:56:00,
2013-07-09 09:01:00,66.3,66.3,30.27,South,178,0.0,0.0,100,0.00,,,0.00,Weather View 32 v70,2013-07-09 13:01:00,
2013-07-09 09:06:00,66.4,66.4,30.28,South,178,0.0,0.0,100,0.00,,,0.00,Weather View 32 v70,2013-07-09 13:06:00,
2013-07-09 09:11:00,66.6,66.6,30.28,South,178,0.0,0.0,100,0.00,,,0.00,Weather View 32 v70,2013-07-09 13:11:00,
2013-07-09 09:16:00,66.7,66.7,30.27,South,177,0.0,0.0,100,0.00,,,0.00,Weather View 32 v70,2013-07-09 13:16:00,
2013-07-09 09:21:00,66.8,66.8,30.27,South,177,0.0,0.0,100,0.00,,,0.00,Weather View 32 v70,2013-07-09 13:21:00,
2013-07-09 09:26:00,66.9,66.9,30.28,South,171,0.0,0.0,100,0.00,,,0.00,Weather View 32 v70,2013-07-09 13:26:00,
2013-07-09 09:31:00,67.2,67.2,30.28,South,171,0.0,0.0,100,0.00,,,0.00,Weather View 32 v70,2013-07-09 13:31:00,
2013-07-09 09:36:00,67.3,67.3,30.28,NNW,346,0.0,0.0,100,0.00,,,0.00,Weather View 32 v70,2013-07-09 13:36:00,
2013-07-09 09:41:00,67.3,67.3,30.28,North,9,0.0,0.0,100,0.00,,,0.00,Weather View 32 v70,2013-07-09 13:41:00,
2013-07-09 09:46:00,67.4,67.4,30.28,North,9,0.0,0.0,100,0.00,,,0.00,Weather View 32 v70,2013-07-09 13:46:00,
2013-07-09 09:51:00,67.5,67.5,30.28,North,9,0.0,0.0,100,0.00,,,0.00,Weather View 32 v70,2013-07-09 13:51:00,
2013-07-09 09:56:00,67.5,67.5,30.28,North,9,0.0,0.0,100,0.00,,,0.00,Weather View 32 v70,2013-07-09 13:56:00,
2013-07-09 10:01:00,67.6,67.6,30.27,North,10,0.0,0.0,100,0.00,,,0.00,Weather View 32 v70,2013-07-09 14:01:00,
2013-07-09 10:06:00,68.0,68.0,30.27,East,86,0.0,0.0,100,0.00,,,0.00,Weather View 32 v70,2013-07-09 14:06:00,
2013-07-09 10:11:00,68.3,68.3,30.27,ENE,76,0.0,0.0,100,0.00,,,0.00,Weather View 32 v70,2013-07-09 14:11:00,
2013-07-09 10:16:00,68.7,68.7,30.27,NNE,26,0.0,0.0,100,0.00,,,0.00,Weather View 32 v70,2013-07-09 14:16:00,
2013-07-09 10:21:00,68.8,68.8,30.27,North,7,0.0,0.0,100,0.00,,,0.00,Weather View 32 v70,2013-07-09 14:21:00,
2013-07-09 10:22:00,68.8,68.8,30.27,North,7,0.0,0.0,100,0.00,,,0.00,Weather View 32 v70,2013-07-09 14:22:00,
2013-07-09 10:27:00,69.0,69.0,30.27,NNE,16,0.0,0.0,100,0.00,,,0.00,Weather View 32 v70,2013-07-09 14:27:00,
2013-07-09 10:32:00,69.6,69.6,30.28,WSW,239,0.0,0.0,100,0.00,,,0.00,Weather View 32 v70,2013-07-09 14:32:00,
2013-07-09 10:37:00,70.5,70.5,30.28,WSW,239,0.0,0.0,100,0.00,,,0.00,Weather View 32 v70,2013-07-09 14:37:00,
2013-07-09 10:42:00,70.8,70.8,30.28,NNW,342,0.0,0.0,100,0.00,,,0.00,Weather View 32 v70,2013-07-09 14:42:00,
2013-07-09 10:47:00,71.0,71.0,30.28,NNW,334,0.0,4.0,100,0.00,,,0.00,Weather View 32 v70,2013-07-09 14:47:00,
2013-07-09 10:52:00,71.6,71.6,30.27,SSW,192,0.0,4.0,100,0.00,,,0.00,Weather View 32 v70,2013-07-09 14:52:00,
2013-07-09 10:57:00,72.1,72.1,30.28,NW,309,0.0,4.0,100,0.00,,,0.00,Weather View 32 v70,2013-07-09 14:57:00,
2013-07-09 11:02:00,72.5,72.5,30.28,West,278,0.0,4.0,100,0.00,,,0.00,Weather View 32 v70,2013-07-09 15:02:00,
2013-07-09 11:07:00,72.8,72.8,30.28,North,356,0.0,4.0,100,0.00,,,0.00,Weather View 32 v70,2013-07-09 15:07:00,
2013-07-09 11:12:00,73.1,73.1,30.27,NNE,32,0.0,4.0,100,0.00,,,0.00,Weather View 32 v70,2013-07-09 15:12:00,
2013-07-09 11:17:00,73.8,73.5,30.27,NE,45,0.0,4.0,99,0.00,,,0.00,Weather View 32 v70,2013-07-09 15:17:00,
2013-07-09 11:22:00,74.1,73.2,30.27,NNW,333,0.0,4.0,97,0.00,,,0.00,Weather View 32 v70,2013-07-09 15:22:00,
2013-07-09 11:27:00,74.3,73.1,30.27,North,6,0.0,4.0,96,0.00,,,0.00,Weather View 32 v70,2013-07-09 15:27:00,
2013-07-09 11:32:00,74.6,73.4,30.28,North,10,0.0,4.0,96,0.00,,,0.00,Weather View 32 v70,2013-07-09 15:32:00,
2013-07-09 11:37:00,74.9,73.4,30.27,NNW,338,0.0,4.0,95,0.00,,,0.00,Weather View 32 v70,2013-07-09 15:37:00,
2013-07-09 11:42:00,74.9,73.7,30.27,West,276,0.0,4.0,96,0.00,,,0.00,Weather View 32 v70,2013-07-09 15:42:00,
2013-07-09 11:47:00,75.1,73.6,30.28,WNW,291,0.0,4.0,95,0.00,,,0.00,Weather View 32 v70,2013-07-09 15:47:00,
2013-07-09 11:52:00,75.7,73.8,30.27,NNW,341,0.0,4.0,94,0.00,,,0.00,Weather View 32 v70,2013-07-09 15:52:00,
2013-07-09 11:57:00,76.0,74.1,30.27,NNW,339,0.0,4.0,94,0.00,,,0.00,Weather View 32 v70,2013-07-09 15:57:00,
2013-07-09 12:02:00,76.2,73.7,30.27,SSW,192,0.0,4.0,92,0.00,,,0.00,Weather View 32 v70,2013-07-09 16:02:00,
2013-07-09 12:07:00,76.7,74.2,30.27,NNE,27,0.0,4.0,92,0.00,,,0.00,Weather View 32 v70,2013-07-09 16:07:00,
2013-07-09 12:12:00,77.3,74.8,30.27,NNE,27,0.0,4.0,92,0.00,,,0.00,Weather View 32 v70,2013-07-09 16:12:00,
2013-07-09 12:17:00,77.6,75.1,30.27,South,189,0.0,4.0,92,0.00,,,0.00,Weather View 32 v70,2013-07-09 16:17:00,
2013-07-09 12:22:00,77.8,74.3,30.27,SSW,205,0.0,4.0,89,0.00,,,0.00,Weather View 32 v70,2013-07-09 16:22:00,
2013-07-09 12:27:00,78.0,75.1,30.27,SSW,200,0.0,4.0,91,0.00,,,0.00,Weather View 32 v70,2013-07-09 16:27:00,
2013-07-09 12:32:00,77.5,74.3,30.27,SW,227,0.0,4.0,90,0.00,,,0.00,Weather View 32 v70,2013-07-09 16:32:00,
2013-07-09 12:37:00,77.2,74.4,30.27,SW,219,0.0,4.0,91,0.00,,,0.00,Weather View 32 v70,2013-07-09 16:37:00,
2013-07-09 12:42:00,76.4,73.6,30.27,SW,217,0.0,4.0,91,0.00,,,0.00,Weather View 32 v70,2013-07-09 16:42:00,
2013-07-09 12:47:00,75.9,73.4,30.27,SW,216,0.0,4.0,92,0.00,,,0.00,Weather View 32 v70,2013-07-09 16:47:00,
2013-07-09 12:52:00,75.4,72.9,30.27,WSW,238,0.0,4.0,92,0.00,,,0.00,Weather View 32 v70,2013-07-09 16:52:00,
2013-07-09 12:57:00,75.2,73.0,30.27,WSW,238,0.0,3.0,93,0.00,,,0.00,Weather View 32 v70,2013-07-09 16:57:00,
2013-07-09 13:02:00,75.2,73.0,30.27,WSW,238,0.0,2.0,93,0.00,,,0.00,Weather View 32 v70,2013-07-09 17:02:00,
2013-07-09 13:07:00,75.7,73.5,30.26,SW,236,0.0,1.0,93,0.00,,,0.00,Weather View 32 v70,2013-07-09 17:07:00,
2013-07-09 13:12:00,76.2,72.4,30.26,SSE,163,0.0,1.0,88,0.00,,,0.00,Weather View 32 v70,2013-07-09 17:12:00,
2013-07-09 13:17:00,77.4,73.5,30.26,North,10,0.0,1.0,88,0.00,,,0.00,Weather View 32 v70,2013-07-09 17:17:00,
2013-07-09 13:22:00,78.1,72.8,30.26,SSW,206,0.0,1.0,84,0.00,,,0.00,Weather View 32 v70,2013-07-09 17:22:00,
2013-07-09 13:27:00,79.4,74.8,30.26,SSW,204,0.0,1.0,86,0.00,,,0.00,Weather View 32 v70,2013-07-09 17:27:00,
2013-07-09 13:32:00,79.7,73.0,30.25,SSW,202,2.0,4.0,80,0.00,,,0.00,Weather View 32 v70,2013-07-09 17:32:00,
2013-07-09 13:37:00,79.8,73.4,30.25,SSW,200,4.0,4.0,81,0.00,,,0.00,Weather View 32 v70,2013-07-09 17:37:00,
2013-07-09 13:42:00,80.0,73.2,30.25,NNW,347,0.0,4.0,80,0.00,,,0.00,Weather View 32 v70,2013-07-09 17:42:00,
2013-07-09 13:47:00,79.8,73.1,30.25,NNW,346,0.0,4.0,80,0.00,,,0.00,Weather View 32 v70,2013-07-09 17:47:00,
2013-07-09 13:52:00,79.9,73.5,30.25,NNW,346,0.0,4.0,81,0.00,,,0.00,Weather View 32 v70,2013-07-09 17:52:00,
2013-07-09 13:57:00,80.5,73.7,30.25,NE,50,0.0,4.0,80,0.00,,,0.00,Weather View 32 v70,2013-07-09 17:57:00,
2013-07-09 14:02:00,80.8,74.0,30.25,ENE,73,0.0,4.0,80,0.00,,,0.00,Weather View 32 v70,2013-07-09 18:02:00,
2013-07-09 14:07:00,80.7,73.9,30.25,ENE,73,0.0,4.0,80,0.00,,,0.00,Weather View 32 v70,2013-07-09 18:07:00,
2013-07-09 14:12:00,80.6,74.9,30.24,ENE,75,0.0,4.0,83,0.00,,,0.00,Weather View 32 v70,2013-07-09 18:12:00,
2013-07-09 14:17:00,80.7,74.7,30.24,East,85,0.0,4.0,82,0.00,,,0.00,Weather View 32 v70,2013-07-09 18:17:00,
2013-07-09 14:22:00,80.6,74.9,30.24,East,85,0.0,4.0,83,0.00,,,0.00,Weather View 32 v70,2013-07-09 18:22:00,
2013-07-09 14:27:00,79.9,74.6,30.24,East,85,0.0,4.0,84,0.00,,,0.00,Weather View 32 v70,2013-07-09 18:27:00,
2013-07-09 14:32:00,78.6,73.7,30.24,South,182,0.0,6.0,85,0.00,,,0.00,Weather View 32 v70,2013-07-09 18:32:00,
2013-07-09 14:37:00,77.3,72.8,30.24,South,184,0.0,6.0,86,0.00,,,0.00,Weather View 32 v70,2013-07-09 18:37:00,
2013-07-09 14:42:00,76.7,72.9,30.24,SSW,212,0.0,6.0,88,0.00,,,0.00,Weather View 32 v70,2013-07-09 18:42:00,
2013-07-09 14:47:00,76.2,73.0,30.24,SE,140,0.0,6.0,90,0.01,,,0.01,Weather View 32 v70,2013-07-09 18:47:00,
2013-07-09 14:52:00,75.5,72.7,30.24,SE,140,0.0,6.0,91,0.01,,,0.01,Weather View 32 v70,2013-07-09 18:52:00,
2013-07-09 14:57:00,74.8,72.6,30.24,SSW,197,0.0,6.0,93,0.01,,,0.01,Weather View 32 v70,2013-07-09 18:57:00,
2013-07-09 15:02:00,74.8,72.9,30.24,SSW,197,0.0,6.0,94,0.01,,,0.01,Weather View 32 v70,2013-07-09 19:02:00,
2013-07-09 15:07:00,75.1,73.2,30.24,East,98,0.0,6.0,94,0.01,,,0.01,Weather View 32 v70,2013-07-09 19:07:00,
2013-07-09 15:12:00,76.0,74.5,30.23,NE,56,0.0,6.0,95,0.01,,,0.01,Weather View 32 v70,2013-07-09 19:12:00,
2013-07-09 15:17:00,76.6,74.7,30.23,SSE,167,0.0,6.0,94,0.01,,,0.01,Weather View 32 v70,2013-07-09 19:17:00,
2013-07-09 15:22:00,77.6,75.7,30.23,ESE,110,0.0,6.0,94,0.01,,,0.01,Weather View 32 v70,2013-07-09 19:22:00,
2013-07-09 15:27:00,78.7,76.8,30.22,ENE,67,0.0,6.0,94,0.01,,,0.01,Weather View 32 v70,2013-07-09 19:27:00,
2013-07-09 15:32:00,79.2,76.7,30.22,North,9,0.0,3.0,92,0.01,,,0.01,Weather View 32 v70,2013-07-09 19:32:00,
2013-07-09 15:37:00,79.5,76.3,30.22,East,97,2.0,3.0,90,0.01,,,0.01,Weather View 32 v70,2013-07-09 19:37:00,
2013-07-09 15:42:00,80.2,76.3,30.22,NNW,341,0.0,4.0,88,0.01,,,0.01,Weather View 32 v70,2013-07-09 19:42:00,
2013-07-09 15:47:00,80.3,76.4,30.22,ENE,63,2.0,4.0,88,0.00,,,0.01,Weather View 32 v70,2013-07-09 19:47:00,
2013-07-09 15:52:00,80.8,76.9,30.22,NW,315,0.0,4.0,88,0.00,,,0.01,Weather View 32 v70,2013-07-09 19:52:00,
2013-07-09 15:57:00,81.3,77.0,30.21,North,7,0.0,4.0,87,0.00,,,0.01,Weather View 32 v70,2013-07-09 19:57:00,
2013-07-09 16:03:00,81.8,77.5,30.21,NNW,348,0.0,4.0,87,0.00,,,0.01,Weather View 32 v70,2013-07-09 20:03:00,
2013-07-09 16:08:00,82.1,77.5,30.21,SSE,151,0.0,4.0,86,0.00,,,0.01,Weather View 32 v70,2013-07-09 20:08:00,
2013-07-09 16:13:00,82.1,77.5,30.20,NNW,342,0.0,4.0,86,0.00,,,0.01,Weather View 32 v70,2013-07-09 20:13:00,
2013-07-09 16:18:00,82.0,77.0,30.20,NNE,32,0.0,4.0,85,0.00,,,0.01,Weather View 32 v70,2013-07-09 20:18:00,
2013-07-09 16:23:00,81.5,76.5,30.19,NNE,32,0.0,4.0,85,0.00,,,0.01,Weather View 32 v70,2013-07-09 20:23:00,
2013-07-09 16:28:00,80.8,75.1,30.19,South,176,0.0,4.0,83,0.00,,,0.01,Weather View 32 v70,2013-07-09 20:28:00,
2013-07-09 16:33:00,80.2,74.9,30.19,South,180,0.0,4.0,84,0.00,,,0.01,Weather View 32 v70,2013-07-09 20:33:00,
2013-07-09 16:38:00,79.6,74.7,30.19,South,180,0.0,4.0,85,0.00,,,0.01,Weather View 32 v70,2013-07-09 20:38:00,
2013-07-09 16:43:00,78.8,73.9,30.19,South,180,0.0,4.0,85,0.00,,,0.01,Weather View 32 v70,2013-07-09 20:43:00,
2013-07-09 16:48:00,78.0,73.5,30.18,South,180,0.0,4.0,86,0.00,,,0.01,Weather View 32 v70,2013-07-09 20:48:00,
2013-07-09 16:53:00,77.5,73.3,30.18,South,180,0.0,4.0,87,0.00,,,0.01,Weather View 32 v70,2013-07-09 20:53:00,
2013-07-09 16:58:00,77.0,72.8,30.19,South,180,0.0,4.0,87,0.00,,,0.01,Weather View 32 v70,2013-07-09 20:58:00,
2013-07-09 17:03:00,76.7,72.9,30.19,South,180,0.0,4.0,88,0.00,,,0.01,Weather View 32 v70,2013-07-09 21:03:00,
2013-07-09 17:08:00,76.3,72.8,30.19,South,181,0.0,4.0,89,0.00,,,0.01,Weather View 32 v70,2013-07-09 21:08:00,
2013-07-09 17:13:00,75.8,72.6,30.18,South,182,0.0,2.0,90,0.00,,,0.01,Weather View 32 v70,2013-07-09 21:13:00,
2013-07-09 17:18:00,75.5,72.3,30.18,South,182,0.0,2.0,90,0.00,,,0.01,Weather View 32 v70,2013-07-09 21:18:00,
2013-07-09 17:23:00,75.3,72.5,30.18,South,182,0.0,2.0,91,0.00,,,0.01,Weather View 32 v70,2013-07-09 21:23:00,
2013-07-09 17:28:00,75.1,72.6,30.19,South,183,0.0,0.0,92,0.00,,,0.01,Weather View 32 v70,2013-07-09 21:28:00,
2013-07-09 17:33:00,75.2,73.0,30.19,South,183,0.0,0.0,93,0.00,,,0.01,Weather View 32 v70,2013-07-09 21:33:00,
2013-07-09 17:38:00,75.2,73.3,30.19,South,182,0.0,0.0,94,0.00,,,0.01,Weather View 32 v70,2013-07-09 21:38:00,
2013-07-09 17:43:00,75.3,73.4,30.19,SW,220,0.0,0.0,94,0.00,,,0.01,Weather View 32 v70,2013-07-09 21:43:00,
2013-07-09 17:48:00,75.3,73.4,30.18,SW,219,0.0,0.0,94,0.00,,,0.01,Weather View 32 v70,2013-07-09 21:48:00,
2013-07-09 17:53:00,75.2,73.3,30.18,SW,219,0.0,0.0,94,0.00,,,0.01,Weather View 32 v70,2013-07-09 21:53:00,
2013-07-09 17:58:00,75.2,73.3,30.18,SW,219,0.0,0.0,94,0.00,,,0.01,Weather View 32 v70,2013-07-09 21:58:00,
2013-07-09 18:03:00,75.3,73.8,30.18,SW,219,0.0,0.0,95,0.00,,,0.01,Weather View 32 v70,2013-07-09 22:03:00,
2013-07-09 18:08:00,75.3,73.8,30.19,SW,219,0.0,0.0,95,0.00,,,0.01,Weather View 32 v70,2013-07-09 22:08:00,
2013-07-09 18:13:00,75.3,73.8,30.19,SW,219,0.0,0.0,95,0.00,,,0.01,Weather View 32 v70,2013-07-09 22:13:00,
2013-07-09 18:18:00,75.3,73.8,30.19,SW,220,0.0,0.0,95,0.00,,,0.01,Weather View 32 v70,2013-07-09 22:18:00,
2013-07-09 18:23:00,75.2,73.7,30.20,West,274,0.0,4.0,95,0.00,,,0.01,Weather View 32 v70,2013-07-09 22:23:00,
2013-07-09 18:28:00,75.3,73.8,30.20,NNW,341,0.0,4.0,95,0.00,,,0.01,Weather View 32 v70,2013-07-09 22:28:00,
2013-07-09 18:33:00,75.2,73.7,30.19,SE,130,0.0,4.0,95,0.00,,,0.01,Weather View 32 v70,2013-07-09 22:33:00,
2013-07-09 18:38:00,75.4,73.9,30.19,SSE,165,0.0,4.0,95,0.00,,,0.01,Weather View 32 v70,2013-07-09 22:38:00,
2013-07-09 18:43:00,75.4,72.9,30.19,ENE,69,0.0,4.0,92,0.00,,,0.01,Weather View 32 v70,2013-07-09 22:43:00,
2013-07-09 18:49:00,75.7,73.2,30.19,NE,52,0.0,4.0,92,0.00,,,0.01,Weather View 32 v70,2013-07-09 22:49:00,
2013-07-09 18:54:00,75.7,73.5,30.20,North,356,0.0,4.0,93,0.00,,,0.01,Weather View 32 v70,2013-07-09 22:54:00,
2013-07-09 18:59:00,75.5,73.3,30.20,NNW,334,0.0,4.0,93,0.00,,,0.01,Weather View 32 v70,2013-07-09 22:59:00,
2013-07-09 19:04:00,75.3,72.8,30.20,SW,226,0.0,4.0,92,0.00,,,0.01,Weather View 32 v70,2013-07-09 23:04:00,
2013-07-09 19:09:00,75.2,72.7,30.19,ESE,107,0.0,4.0,92,0.00,,,0.01,Weather View 32 v70,2013-07-09 23:09:00,
2013-07-09 19:14:00,74.9,72.4,30.19,ESE,104,0.0,4.0,92,0.00,,,0.01,Weather View 32 v70,2013-07-09 23:14:00,
2013-07-09 19:19:00,74.7,72.2,30.19,ESE,105,0.0,4.0,92,0.00,,,0.01,Weather View 32 v70,2013-07-09 23:19:00,
2013-07-09 19:24:00,74.4,71.9,30.19,ESE,105,0.0,2.0,92,0.00,,,0.01,Weather View 32 v70,2013-07-09 23:24:00,
2013-07-09 19:29:00,73.9,71.7,30.19,ESE,105,0.0,2.0,93,0.00,,,0.01,Weather View 32 v70,2013-07-09 23:29:00,
2013-07-09 19:34:00,73.7,71.9,30.19,ESE,105,0.0,2.0,94,0.00,,,0.01,Weather View 32 v70,2013-07-09 23:34:00,
2013-07-09 19:39:00,73.5,71.7,30.19,ESE,105,0.0,2.0,94,0.00,,,0.01,Weather View 32 v70,2013-07-09 23:39:00,
2013-07-09 19:44:00,73.4,71.6,30.19,ESE,105,0.0,1.0,94,0.00,,,0.01,Weather View 32 v70,2013-07-09 23:44:00,
2013-07-09 19:49:00,73.2,71.7,30.20,ESE,105,0.0,1.0,95,0.00,,,0.01,Weather View 32 v70,2013-07-09 23:49:00,
2013-07-09 19:54:00,73.0,71.5,30.20,ESE,105,0.0,1.0,95,0.00,,,0.01,Weather View 32 v70,2013-07-09 23:54:00,
2013-07-09 19:59:00,72.7,71.5,30.20,ESE,105,0.0,1.0,96,0.00,,,0.01,Weather View 32 v70,2013-07-09 23:59:00,
2013-07-09 20:04:00,72.6,71.4,30.20,ESE,105,0.0,0.0,96,0.00,,,0.01,Weather View 32 v70,2013-07-10 00:04:00,
2013-07-09 20:09:00,72.3,71.1,30.20,ESE,105,0.0,0.0,96,0.00,,,0.01,Weather View 32 v70,2013-07-10 00:09:00,
2013-07-09 20:14:00,72.1,70.9,30.20,ESE,105,0.0,0.0,96,0.00,,,0.01,Weather View 32 v70,2013-07-10 00:14:00,
2013-07-09 20:19:00,71.9,71.0,30.19,ESE,105,0.0,0.0,97,0.00,,,0.01,Weather View 32 v70,2013-07-10 00:19:00,
2013-07-09 20:24:00,71.7,70.8,30.19,SSE,150,0.0,0.0,97,0.00,,,0.01,Weather View 32 v70,2013-07-10 00:24:00,
2013-07-09 20:29:00,71.5,70.6,30.19,SSE,150,0.0,0.0,97,0.00,,,0.01,Weather View 32 v70,2013-07-10 00:29:00,
2013-07-09 20:34:00,71.3,70.4,30.19,SSE,150,0.0,0.0,97,0.00,,,0.01,Weather View 32 v70,2013-07-10 00:34:00,
2013-07-09 20:39:00,71.1,70.5,30.19,SSE,150,0.0,0.0,98,0.00,,,0.01,Weather View 32 v70,2013-07-10 00:39:00,
2013-07-09 20:44:00,70.9,70.3,30.20,SSE,150,0.0,0.0,98,0.00,,,0.01,Weather View 32 v70,2013-07-10 00:44:00,
2013-07-09 20:49:00,70.6,70.0,30.20,SSE,150,0.0,0.0,98,0.00,,,0.01,Weather View 32 v70,2013-07-10 00:49:00,
2013-07-09 20:54:00,70.3,69.7,30.20,SSE,150,0.0,0.0,98,0.00,,,0.01,Weather View 32 v70,2013-07-10 00:54:00,
2013-07-09 20:59:00,70.1,69.5,30.21,SSE,150,0.0,0.0,98,0.00,,,0.01,Weather View 32 v70,2013-07-10 00:59:00,
2013-07-09 21:04:00,69.8,69.5,30.21,SSE,151,0.0,0.0,99,0.00,,,0.01,Weather View 32 v70,2013-07-10 01:04:00,
2013-07-09 21:09:00,69.5,69.2,30.22,SSE,155,0.0,0.0,99,0.00,,,0.01,Weather View 32 v70,2013-07-10 01:09:00,
2013-07-09 21:14:00,69.2,68.9,30.22,SSE,155,0.0,0.0,99,0.00,,,0.01,Weather View 32 v70,2013-07-10 01:14:00,
2013-07-09 21:20:00,68.9,68.6,30.22,SSE,155,0.0,0.0,99,0.00,,,0.01,Weather View 32 v70,2013-07-10 01:20:00,
2013-07-09 21:25:00,68.6,68.6,30.22,SSE,155,0.0,0.0,100,0.00,,,0.01,Weather View 32 v70,2013-07-10 01:25:00,
2013-07-09 21:30:00,68.4,68.4,30.21,SSE,155,0.0,0.0,100,0.00,,,0.01,Weather View 32 v70,2013-07-10 01:30:00,
2013-07-09 21:35:00,68.3,68.3,30.21,SSE,155,0.0,0.0,100,0.00,,,0.01,Weather View 32 v70,2013-07-10 01:35:00,
2013-07-09 21:40:00,68.1,68.1,30.22,SSE,155,0.0,0.0,100,0.00,,,0.01,Weather View 32 v70,2013-07-10 01:40:00,
2013-07-09 21:45:00,67.9,67.9,30.22,SSE,156,0.0,0.0,100,0.00,,,0.01,Weather View 32 v70,2013-07-10 01:45:00,
2013-07-09 21:50:00,67.7,67.7,30.21,SSE,156,0.0,0.0,100,0.00,,,0.01,Weather View 32 v70,2013-07-10 01:50:00,
2013-07-09 21:55:00,67.6,67.6,30.21,SSE,156,0.0,0.0,100,0.00,,,0.01,Weather View 32 v70,2013-07-10 01:55:00,
2013-07-09 22:00:00,67.5,67.5,30.21,SSE,156,0.0,0.0,100,0.00,,,0.01,Weather View 32 v70,2013-07-10 02:00:00,
2013-07-09 22:05:00,67.4,67.4,30.21,SSE,156,0.0,0.0,100,0.00,,,0.01,Weather View 32 v70,2013-07-10 02:05:00,
2013-07-09 22:10:00,67.3,67.3,30.22,SSE,156,0.0,0.0,100,0.00,,,0.01,Weather View 32 v70,2013-07-10 02:10:00,
2013-07-09 22:15:00,67.2,67.2,30.22,SSE,157,0.0,0.0,100,0.00,,,0.01,Weather View 32 v70,2013-07-10 02:15:00,
2013-07-09 22:20:00,67.1,67.1,30.22,SSE,157,0.0,0.0,100,0.00,,,0.01,Weather View 32 v70,2013-07-10 02:20:00,
2013-07-09 22:25:00,67.0,67.0,30.22,SSE,157,0.0,0.0,100,0.00,,,0.01,Weather View 32 v70,2013-07-10 02:25:00,
2013-07-09 22:30:00,66.9,66.9,30.22,SSE,157,0.0,0.0,100,0.00,,,0.01,Weather View 32 v70,2013-07-10 02:30:00,
2013-07-09 22:35:00,66.8,66.8,30.22,SSE,157,0.0,0.0,100,0.00,,,0.01,Weather View 32 v70,2013-07-10 02:35:00,
2013-07-09 22:40:00,66.7,66.7,30.22,SSE,164,0.0,0.0,100,0.00,,,0.01,Weather View 32 v70,2013-07-10 02:40:00,
2013-07-09 22:45:00,66.6,66.6,30.22,SSE,165,0.0,0.0,100,0.00,,,0.01,Weather View 32 v70,2013-07-10 02:45:00,
2013-07-09 22:50:00,66.6,66.6,30.22,SSE,165,0.0,0.0,100,0.00,,,0.01,Weather View 32 v70,2013-07-10 02:50:00,
2013-07-09 22:55:00,66.5,66.5,30.22,SSE,165,0.0,0.0,100,0.00,,,0.01,Weather View 32 v70,2013-07-10 02:55:00,
2013-07-09 23:00:00,66.5,66.5,30.22,SSE,165,0.0,0.0,100,0.00,,,0.01,Weather View 32 v70,2013-07-10 03:00:00,
2013-07-09 23:05:00,66.4,66.4,30.22,SSE,165,0.0,0.0,100,0.00,,,0.01,Weather View 32 v70,2013-07-10 03:05:00,
2013-07-09 23:10:00,66.4,66.4,30.22,SSE,165,0.0,0.0,100,0.00,,,0.01,Weather View 32 v70,2013-07-10 03:10:00,
2013-07-09 23:15:00,66.4,66.4,30.22,SSE,165,0.0,0.0,100,0.00,,,0.01,Weather View 32 v70,2013-07-10 03:15:00,
2013-07-09 23:20:00,66.4,66.4,30.22,SSE,164,0.0,0.0,100,0.00,,,0.01,Weather View 32 v70,2013-07-10 03:20:00,
2013-07-09 23:25:00,66.4,66.4,30.22,SSE,164,0.0,0.0,100,0.00,,,0.01,Weather View 32 v70,2013-07-10 03:25:00,
2013-07-09 23:30:00,66.3,66.3,30.23,SSE,165,0.0,0.0,100,0.00,,,0.01,Weather View 32 v70,2013-07-10 03:30:00,
2013-07-09 23:35:00,66.3,66.3,30.22,SSE,164,0.0,0.0,100,0.00,,,0.01,Weather View 32 v70,2013-07-10 03:35:00,
2013-07-09 23:40:00,66.2,66.2,30.22,SSE,165,0.0,0.0,100,0.00,,,0.01,Weather View 32 v70,2013-07-10 03:40:00,
2013-07-09 23:45:00,66.2,66.2,30.22,SSE,163,0.0,0.0,100,0.00,,,0.01,Weather View 32 v70,2013-07-10 03:45:00,
2013-07-09 23:50:00,66.2,66.2,30.22,SSE,157,0.0,0.0,100,0.00,,,0.01,Weather View 32 v70,2013-07-10 03:50:00,
2013-07-09 23:55:00,66.1,66.1,30.22,SSE,157,0.0,0.0,100,0.00,,,0.01,Weather View 32 v70,2013-07-10 03:55:00,